[[{"header":{"parameterUnit":"m.s-1","parameterCategory":1,"la1":30.2991,"la2":30.254,"lo1":-89.0895,"lo2":-89.0444,"dy":0.0017,"dx":0.0017,"nx":28,"ny":28,"refTime":"2024-12-13T03:00:00:Z","depth":0,"parameterNumber":2,"parameterNumberName":"U-component_of_WINDS"},"data":[0,0,0,0,0,0,0,0,0,0,0,0,0,0,0,0,0,0,0,0,0,0,0,0,0,0,0,0,0,0,0,0,0,0,0,0,0,0,0,0,0,0,0,0,0,0,0,0,0,0,0,0,0,0,0,0,0,0,-2.4719,-2.4719,0,-2.4666,-2.4666,-2.4665,-2.4521,-2.4518,-2.4514,-2.4512,-2.4461,-2.4462,-2.4464,0,0,0,0,0,0,0,0,0,0,0,0,0,-2.4698,-2.47,-2.4719,-2.4719,-2.4718,-2.4666,-2.4666,-2.4665,-2.4521,-2.4517,-2.4514,-2.451,-2.446,-2.4462,-2.4464,0,0,0,0,0,0,0,0,0,0,0,0,0,-2.4683,-2.47,-2.4719,-2.464,-2.4632,-2.4666,-2.4666,-2.4665,-2.4522,-2.4517,-2.4513,-2.4508,-2.446,-2.4462,-2.4464,-2.4572,0,0,-2.4471,-2.4472,0,0,0,0,0,0,0,0,-2.4684,-2.4684,-2.4652,-2.4645,-2.4637,-2.4595,-2.4639,-2.4634,-2.4523,-2.4564,-2.4511,-2.4506,-2.451,-2.4508,-2.4508,-2.457,-2.4568,-2.4472,-2.4473,-2.4474,-2.4475,0,0,0,0,0,0,0,-2.4685,-2.4685,-2.4698,-2.4652,-2.4643,-2.4608,-2.46,-2.4638,-2.4564,-2.456,-2.455,-2.4545,-2.4505,-2.4506,-2.4506,-2.4567,-2.4472,-2.4474,-2.4475,-2.4476,-2.4714,-2.4719,0,0,0,0,0,0,-2.4697,-2.4687,-2.47,-2.4697,-2.4649,-2.4612,-2.4604,-2.4613,-2.4563,-2.4551,-2.4549,-2.4539,-2.4504,-2.4503,-2.4503,-2.4626,-2.4474,-2.4476,-2.4478,-2.4709,-2.4715,-2.472,0,0,0,0,0,0,-2.4697,-2.47,-2.4702,-2.4689,-2.4687,-2.4617,-2.4629,-2.4615,-2.4616,-2.4555,-2.4541,-2.4564,-2.4501,-2.45,-2.4556,-2.4622,-2.4477,-2.4479,-2.4703,-2.4711,-2.4718,-2.4873,0,0,0,0,0,0,-2.4697,-2.4701,-2.4741,-2.4691,-2.4688,-2.4755,-2.4633,-2.4617,-2.462,-2.4606,-2.4565,-2.4554,-2.4497,-2.4553,-2.4558,-2.4623,-2.4481,-2.4697,-2.4707,-2.4715,-2.4862,-2.4885,-2.4905,0,0,0,0,0,-2.4697,-2.4787,-2.4743,-2.4746,-2.4736,-2.4759,-2.4758,-2.4689,-2.4626,-2.4666,-2.4626,-2.4555,-2.4614,-2.456,-2.4564,-2.4631,-2.4693,-2.4704,-2.4715,-2.4852,-2.488,-2.4904,0,0,0,0,0,0,-2.4849,-2.478,-2.473,-2.4807,-2.479,-2.4735,-2.4783,-2.4722,-2.4723,-2.471,-2.4626,-2.4618,-2.4686,-2.4663,-2.4605,-2.4732,-2.4642,-2.4654,-2.4745,-2.4771,-2.4792,-2.4796,-2.4483,0,0,0,0,0,-2.489,-2.4914,-2.4853,-2.4927,-2.492,-2.4854,-2.4861,-2.481,-2.4789,-2.4782,-2.4746,-2.473,-2.4745,-2.4756,-2.4766,-2.4857,-2.4846,-2.4905,-2.4927,-2.4945,-2.4957,-2.5003,-2.5028,-2.4757,-2.4757,-2.4756,0,0,-2.4978,-2.4943,-2.4964,-2.4956,-2.4937,-2.4964,-2.4849,-2.4883,-2.4902,-2.4787,-2.4837,-2.4811,-2.4787,-2.4861,-2.4892,-2.4845,-2.5029,-2.4959,-2.4973,-2.4976,-2.5017,-2.5043,-2.5066,-2.4764,-2.4763,-2.4762,0,0,-2.5152,-2.5128,-2.5186,-2.5169,-2.514,-2.5095,-2.5109,-2.5063,-2.5041,-2.5089,-2.5004,-2.5026,-2.5053,-2.504,-2.5036,-2.5204,-2.5138,-2.5209,-2.5322,-2.5368,-2.5389,-2.5408,-2.5468,-2.549,-2.5221,-2.5222,-2.5222,0,-2.5265,-2.5301,-2.5224,-2.5263,-2.5262,-2.5158,-2.5216,-2.5204,-2.5182,-2.5184,-2.5131,-2.5162,-2.5139,-2.5208,-2.5248,-2.5249,-2.5263,-2.5214,-2.5392,-2.541,-2.5426,-2.5482,-2.5505,-2.523,-2.5229,-2.5229,-2.5228,0,-2.5441,-2.5468,-2.5518,-2.5497,-2.5502,-2.5551,-2.5482,-2.5496,-2.5444,-2.5405,-2.5456,-2.5424,-2.5425,-2.5438,-2.5388,-2.55,-2.5471,-2.5407,-2.5314,-2.5462,-2.5514,-2.5535,-2.5243,-2.524,-2.5237,-2.5235,0,0,-2.571,-2.5644,-2.5664,-2.5653,-2.5614,-2.5633,-2.5677,-2.5677,-2.5691,-2.5679,-2.5714,-2.5739,-2.5678,-2.5675,-2.5622,-2.5663,-2.5797,-2.5593,-2.5591,-2.5632,-2.5919,-2.5968,-2.5995,-2.5753,-2.5757,-2.576,-2.5921,0,-2.5874,-2.5944,-2.5876,-2.596,-2.5984,-2.5884,-2.5923,-2.5903,-2.5867,-2.5883,-2.5843,-2.5862,-2.5781,-2.5778,-2.5813,-2.5774,-2.5854,-2.5761,-2.5786,-2.5788,-2.5796,-2.6021,-2.6074,-2.6227,-2.5941,-2.5944,-2.5946,0,-2.6075,-2.607,-2.6157,-2.611,-2.6118,-2.6154,-2.6147,-2.6163,-2.6139,-2.611,-2.6106,-2.6041,-2.6082,-2.5991,-2.6046,-2.5984,-2.599,-2.5973,-2.5977,-2.5977,-2.5877,-2.6029,-2.6274,-2.6298,-2.5977,-2.5975,-2.5972,0,-2.6263,-2.6278,-2.6331,-2.6325,-2.6272,-2.63,-2.628,-2.625,-2.6255,-2.625,-2.6252,-2.6253,-2.6253,-2.6256,-2.6193,-2.6133,-2.6257,-2.616,-2.6235,-2.6237,-2.6266,-2.6265,-2.6517,-2.6269,-2.6269,-2.6269,-2.6268,0,-2.6453,-2.651,-2.6415,-2.6448,-2.6509,-2.6429,-2.6492,-2.6462,-2.6436,-2.6462,-2.6377,-2.6403,-2.6319,-2.6337,-2.6288,-2.6342,-2.6343,-2.6321,-2.6308,-2.6329,-2.6332,-2.6333,-2.6321,-2.6275,-2.6273,-2.6272,-2.6271,0,-2.6674,-2.6612,-2.6664,-2.6609,-2.6597,-2.6644,-2.6598,-2.6627,-2.6584,-2.6618,-2.6622,-2.6556,-2.6572,-2.651,-2.6517,-2.6484,-2.6563,-2.6531,-2.6571,-2.6562,-2.664,-2.6633,-2.6901,-2.6933,-2.6665,-2.6668,-2.667,0,-2.68,-2.6841,-2.679,-2.6801,-2.6784,-2.6803,-2.6806,-2.6729,-2.6736,-2.6711,-2.6744,-2.6752,-2.6755,-2.6786,-2.674,-2.6745,-2.6713,-2.6806,-2.6713,-2.6733,-2.6715,-2.6714,-2.6717,-2.6826,-2.683,-2.6832,-2.6835,0,-2.703,-2.6997,-2.7004,-2.7001,-2.7007,-2.7001,-2.6989,-2.7003,-2.6921,-2.6933,-2.6948,-2.695,-2.6956,-2.6966,-2.696,-2.694,-2.6875,-2.6864,-2.6881,-2.6904,-2.6926,-2.6916,-2.6624,-2.6859,-2.6856,-2.6854,-2.6853,-2.6852,-2.7207,-2.7239,-2.7208,-2.7219,-2.7201,-2.7192,-2.7216,-2.7176,-2.7187,-2.7184,-2.7139,-2.7163,-2.7137,-2.7122,-2.7109,-2.7127,-2.7083,-2.7109,-2.7115,-2.7123,-2.7136,-2.6922,-2.7126,-2.7125,-2.7124,-2.7123,-2.7123,0,-2.7434,-2.7408,-2.7419,-2.7404,-2.7413,-2.7348,-2.7331,-2.7344,-2.7365,-2.7346,-2.735,-2.7367,-2.7376,-2.733,-2.7333,-2.7357,-2.7327,-2.736,-2.7358,-2.7355,-2.7175,-2.716,-2.7385,-2.7385,-2.7385,-2.7385,-2.7384,-2.7384,-2.7552,-2.7602,-2.7566,-2.7606,-2.758,-2.7602,-2.7598,-2.7589,-2.7573,-2.7596,-2.7602,-2.7572,-2.7542,-2.7542,-2.7548,-2.7534,-2.7539,-2.7584,-2.756,-2.7393,-2.7368,-2.7343,-2.7328,-2.7585,-2.7586,-2.7738,-2.7739,-2.774]},{"header":{"parameterUnit":"m.s-1","parameterCategory":1,"la1":30.2991,"la2":30.254,"lo1":-89.0895,"lo2":-89.0444,"dy":0.0017,"dx":0.0017,"nx":28,"ny":28,"refTime":"2024-12-13T03:00:00:Z","depth":0,"parameterNumber":3,"parameterNumberName":"V-component_of_WINDS"},"data":[0,0,0,0,0,0,0,0,0,0,0,0,0,0,0,0,0,0,0,0,0,0,0,0,0,0,0,0,0,0,0,0,0,0,0,0,0,0,0,0,0,0,0,0,0,0,0,0,0,0,0,0,0,0,0,0,0,0,-1.2207,-1.2208,0,-1.2302,-1.2303,-1.2304,-1.2343,-1.2343,-1.2343,-1.2343,-1.244,-1.2443,-1.2445,0,0,0,0,0,0,0,0,0,0,0,0,0,-1.2058,-1.206,-1.2206,-1.2208,-1.2209,-1.2301,-1.2303,-1.2304,-1.2343,-1.2343,-1.2343,-1.2343,-1.2439,-1.2442,-1.2446,0,0,0,0,0,0,0,0,0,0,0,0,0,-1.2135,-1.2061,-1.2206,-1.224,-1.2244,-1.2301,-1.2303,-1.2304,-1.2343,-1.2343,-1.2343,-1.2342,-1.2438,-1.2442,-1.2446,-1.2478,0,0,-1.2459,-1.2461,0,0,0,0,0,0,0,0,-1.213,-1.214,-1.2234,-1.2237,-1.2242,-1.231,-1.2286,-1.2363,-1.2343,-1.2305,-1.2343,-1.2342,-1.2397,-1.2405,-1.2423,-1.2482,-1.2487,-1.2459,-1.2462,-1.2464,-1.2465,0,0,0,0,0,0,0,-1.2125,-1.2136,-1.2244,-1.2235,-1.224,-1.2249,-1.226,-1.2301,-1.2352,-1.2309,-1.2312,-1.2323,-1.2399,-1.2419,-1.2426,-1.2488,-1.2459,-1.2463,-1.2465,-1.2467,-1.2577,-1.2577,0,0,0,0,0,0,-1.2114,-1.2131,-1.2241,-1.2247,-1.2184,-1.2252,-1.2264,-1.2289,-1.2351,-1.2361,-1.2323,-1.2324,-1.2412,-1.2421,-1.2429,-1.247,-1.2464,-1.2467,-1.247,-1.2577,-1.2577,-1.2578,0,0,0,0,0,0,-1.2111,-1.2124,-1.2237,-1.219,-1.2205,-1.2255,-1.2282,-1.2291,-1.231,-1.2362,-1.2371,-1.2333,-1.2412,-1.2423,-1.2465,-1.2474,-1.2469,-1.2473,-1.2576,-1.2577,-1.2577,-1.2552,0,0,0,0,0,0,-1.2106,-1.2122,-1.2135,-1.219,-1.2208,-1.2272,-1.2283,-1.2293,-1.2317,-1.232,-1.2375,-1.2383,-1.2413,-1.2459,-1.2469,-1.248,-1.2476,-1.2576,-1.2576,-1.2577,-1.2552,-1.2552,-1.2551,0,0,0,0,0,-1.2101,-1.2124,-1.2135,-1.2148,-1.2225,-1.2272,-1.2282,-1.2316,-1.2318,-1.2331,-1.2364,-1.2382,-1.2471,-1.2463,-1.2475,-1.2487,-1.2575,-1.2576,-1.2577,-1.2552,-1.2552,-1.2551,0,0,0,0,0,0,-1.2069,-1.2132,-1.2145,-1.2187,-1.2224,-1.2279,-1.2297,-1.2314,-1.2351,-1.2352,-1.2392,-1.2404,-1.2442,-1.2469,-1.2458,-1.252,-1.2524,-1.2528,-1.2502,-1.2501,-1.2501,-1.2494,-1.248,0,0,0,0,0,-1.2067,-1.21,-1.2154,-1.2185,-1.2203,-1.2246,-1.2268,-1.2291,-1.2331,-1.2347,-1.2383,-1.2421,-1.2457,-1.2481,-1.2517,-1.2556,-1.2568,-1.257,-1.2569,-1.2568,-1.2571,-1.2593,-1.2594,-1.2581,-1.2581,-1.2581,0,0,-1.2063,-1.2101,-1.212,-1.218,-1.2211,-1.2245,-1.2259,-1.2295,-1.232,-1.2352,-1.2394,-1.2421,-1.2466,-1.2506,-1.2526,-1.2529,-1.2577,-1.257,-1.2569,-1.2572,-1.2594,-1.2595,-1.2596,-1.2581,-1.2581,-1.2581,0,0,-1.2073,-1.2105,-1.2135,-1.2166,-1.2213,-1.2241,-1.2248,-1.23,-1.232,-1.2362,-1.2387,-1.2417,-1.2479,-1.251,-1.2534,-1.2554,-1.2571,-1.2564,-1.2562,-1.2582,-1.2583,-1.2585,-1.2591,-1.2593,-1.2567,-1.2567,-1.2567,0,-1.2062,-1.2113,-1.2148,-1.2182,-1.2207,-1.2237,-1.2267,-1.2295,-1.2352,-1.2368,-1.2371,-1.245,-1.2482,-1.253,-1.2534,-1.2553,-1.2562,-1.2559,-1.2581,-1.2582,-1.2584,-1.2591,-1.2593,-1.2566,-1.2566,-1.2566,-1.2566,0,-1.2097,-1.2133,-1.2151,-1.2204,-1.2232,-1.2263,-1.2302,-1.2325,-1.2345,-1.2373,-1.2415,-1.2455,-1.25,-1.2512,-1.2532,-1.2562,-1.2563,-1.2573,-1.2578,-1.2583,-1.259,-1.2593,-1.2564,-1.2564,-1.2565,-1.2565,0,0,-1.2091,-1.2162,-1.2168,-1.2192,-1.2246,-1.2274,-1.2306,-1.235,-1.2369,-1.2406,-1.2434,-1.2486,-1.2495,-1.2522,-1.2545,-1.2563,-1.2575,-1.257,-1.2572,-1.257,-1.2611,-1.2603,-1.2606,-1.2587,-1.2588,-1.2588,-1.2607,0,-1.2108,-1.2168,-1.2199,-1.2245,-1.2278,-1.2306,-1.2335,-1.237,-1.2397,-1.2428,-1.2457,-1.2493,-1.2502,-1.2519,-1.2538,-1.257,-1.2584,-1.2569,-1.2613,-1.2615,-1.2601,-1.261,-1.2602,-1.2618,-1.261,-1.2611,-1.2611,0,-1.2136,-1.2173,-1.2222,-1.2271,-1.2285,-1.231,-1.2352,-1.2382,-1.2422,-1.244,-1.247,-1.2492,-1.2527,-1.2529,-1.2578,-1.2566,-1.2586,-1.2604,-1.2606,-1.2612,-1.2613,-1.2616,-1.2624,-1.2626,-1.2616,-1.2615,-1.2615,0,-1.2126,-1.2188,-1.2225,-1.2245,-1.2303,-1.2319,-1.2344,-1.2384,-1.2408,-1.2444,-1.246,-1.25,-1.2522,-1.2553,-1.2585,-1.2584,-1.263,-1.2635,-1.2646,-1.2645,-1.2655,-1.2654,-1.2667,-1.2667,-1.2667,-1.2667,-1.2667,0,-1.2142,-1.2171,-1.2221,-1.2244,-1.2277,-1.2313,-1.2344,-1.2371,-1.2406,-1.2435,-1.2462,-1.2488,-1.2529,-1.256,-1.2586,-1.2622,-1.2632,-1.2647,-1.2654,-1.2645,-1.2643,-1.2659,-1.2659,-1.2668,-1.2668,-1.2668,-1.2668,0,-1.2137,-1.2172,-1.2214,-1.2265,-1.2278,-1.23,-1.2344,-1.2367,-1.2394,-1.243,-1.244,-1.2483,-1.2521,-1.2556,-1.2607,-1.2624,-1.266,-1.2669,-1.2647,-1.265,-1.2659,-1.2658,-1.2683,-1.2688,-1.2684,-1.2684,-1.2684,0,-1.2145,-1.2168,-1.222,-1.2241,-1.2265,-1.2299,-1.2323,-1.2358,-1.2382,-1.2429,-1.2447,-1.2486,-1.252,-1.2579,-1.2615,-1.2654,-1.2663,-1.2669,-1.2669,-1.266,-1.2664,-1.2662,-1.2664,-1.2669,-1.2669,-1.2669,-1.2669,0,-1.2155,-1.2171,-1.2205,-1.2244,-1.2272,-1.2305,-1.2339,-1.2355,-1.2396,-1.2422,-1.2461,-1.2487,-1.2538,-1.2577,-1.262,-1.2645,-1.2664,-1.2668,-1.2673,-1.2664,-1.265,-1.2658,-1.2645,-1.2668,-1.2668,-1.2668,-1.2668,-1.2668,-1.2157,-1.2178,-1.2218,-1.2255,-1.2284,-1.2315,-1.2339,-1.2369,-1.2402,-1.2446,-1.2465,-1.2504,-1.2543,-1.2602,-1.2627,-1.2658,-1.2662,-1.2669,-1.2671,-1.2672,-1.267,-1.2645,-1.2666,-1.2666,-1.2666,-1.2666,-1.2666,0,-1.2169,-1.2196,-1.2229,-1.2275,-1.2303,-1.2318,-1.2356,-1.2379,-1.2413,-1.2447,-1.248,-1.2524,-1.2562,-1.26,-1.264,-1.2657,-1.2667,-1.2666,-1.2666,-1.2671,-1.2664,-1.2656,-1.2658,-1.2658,-1.2658,-1.2658,-1.2658,-1.2658,-1.2178,-1.2215,-1.2235,-1.2286,-1.2313,-1.2351,-1.2372,-1.24,-1.2428,-1.2476,-1.2507,-1.2531,-1.2568,-1.261,-1.2645,-1.2655,-1.2669,-1.2666,-1.2679,-1.2671,-1.2672,-1.2672,-1.2665,-1.2669,-1.2669,-1.2683,-1.2683,-1.2684]}]]